Date String (YYYY-MM-DD hh:mm:ss) UTC,Instrument flags,absolute air pressure of the measurement (hPa),sample flow rate (lpm),inlet stack bypass flow (lpm),air temperature of the measurement (°C),ambient temperature measured by the external sensor (°C),aerosol sample conditioner tube jacket temperature (°C),OPC LED temperature (°C),internal box temperature (°C),relative humidity of the measurement (%),span deviation,mass concentration of particles derived from Lorenz-Mie calculation of OPC scattering (μg/m³),mass concentration of particles derived from Lorenz-Mie calculation of OPC scattering (μg/m³),mass concentration of particles derived from Lorenz-Mie calculation of OPC scattering (μg/m³)
DateTimeUTC,F1_M11,P_M11,Q1_M11,Q2_M11,T1_M11,T2_M11,T3_M11,T4_M11,T5_M11,U1_M11,ZSPAN_M11,X2_M11,X0_M11,X1_M11
2023-07-13 16:00:00,SystemResetWarning,0831.7,5.00,000.00,028.9,027.3,000.0,037.3,030.5,31.2,0000.0,0004.56,0009.92,0003.96
2023-07-13 16:01:00,SystemResetWarning,0831.7,5.00,000.00,028.9,027.5,000.0,037.3,030.6,30.0,0000.0,0004.57,0010.77,0003.96
2023-07-13 16:02:00,SystemResetWarning,0831.8,4.98,000.00,029.0,026.7,000.0,037.2,030.5,30.1,0000.0,0004.60,0010.53,0003.97
2023-07-13 16:03:00,SystemResetWarning,0831.7,5.01,000.00,028.9,025.4,000.0,037.1,030.3,30.3,0000.0,0004.57,0010.04,0003.99
2023-07-13 16:04:00,SystemResetWarning,0831.6,5.01,000.00,028.8,025.1,000.0,037.0,030.2,30.1,0000.0,0004.63,0009.81,0004.01
2023-07-13 16:05:00,SystemResetWarning,0831.6,5.01,000.00,028.8,025.5,000.0,037.1,030.1,30.6,0000.0,0004.69,0010.15,0004.06
2023-07-13 16:06:00,SystemResetWarning,0831.6,5.00,000.00,028.7,025.9,000.0,037.1,030.2,29.6,0000.0,0004.73,0010.20,0004.09
2023-07-13 16:07:00,SystemResetWarning,0831.6,5.00,000.00,028.7,026.3,000.0,037.2,030.2,30.2,0000.0,0004.77,0010.59,0004.10
2023-07-13 16:08:00,SystemResetWarning,0831.6,4.99,000.00,028.8,026.7,000.0,037.2,030.3,28.8,0000.0,0004.79,0011.48,0004.11
2023-07-13 16:09:00,SystemResetWarning,0831.7,5.00,000.00,028.8,027.0,000.0,037.2,030.4,28.2,0000.0,0004.82,0011.52,0004.12
2023-07-13 16:10:00,SystemResetWarning,0831.7,5.00,000.00,028.8,027.3,000.0,037.2,030.5,31.8,0000.0,0004.87,0012.02,0004.13
2023-07-13 16:11:00,SystemResetWarning,0831.7,5.00,000.00,028.9,027.5,000.0,037.3,030.6,31.8,0000.0,0004.90,0013.81,0004.15
2023-07-13 16:12:00,SystemResetWarning,0831.7,4.98,000.00,028.9,026.9,000.0,037.2,030.6,33.5,0000.0,0004.89,0013.18,0004.16
2023-07-13 16:13:00,SystemResetWarning,0831.6,4.99,000.00,028.9,025.5,000.0,037.1,030.4,33.3,0000.0,0004.90,0013.21,0004.16
2023-07-13 16:14:00,SystemResetWarning,0831.6,5.02,000.00,028.8,025.1,000.0,037.0,030.2,32.6,0000.0,0004.92,0013.71,0004.14
2023-07-13 16:15:00,SystemResetWarning,0831.6,5.00,000.00,028.8,025.4,000.0,037.0,030.1,32.1,0000.0,0004.86,0013.33,0004.11
2023-07-13 16:16:00,SystemResetWarning,0831.6,5.00,000.00,028.7,025.8,000.0,037.1,030.2,31.4,0000.0,0004.80,0012.91,0004.07
2023-07-13 16:17:00,SystemResetWarning,0831.6,5.00,000.00,028.8,026.2,000.0,037.1,030.2,30.6,0000.0,0004.82,0012.96,0004.04
2023-07-13 16:18:00,SystemResetWarning,0831.6,5.00,000.00,028.8,026.6,000.0,037.1,030.3,31.1,0000.0,0004.84,0012.88,0004.04
2023-07-13 16:19:00,SystemResetWarning,0831.6,5.00,000.00,028.8,026.9,000.0,037.2,030.4,30.4,0000.0,0004.83,0012.00,0004.04
2023-07-13 16:20:00,SystemResetWarning,0831.6,4.99,000.00,028.9,027.2,000.0,037.2,030.5,31.6,0000.0,0004.92,0012.14,0004.05
2023-07-13 16:21:00,SystemResetWarning,0831.6,5.00,000.00,028.9,027.3,000.0,037.2,030.6,28.4,0000.0,0004.92,0011.87,0004.08
2023-07-13 16:22:00,SystemResetWarning,0831.6,4.98,000.00,028.9,026.2,000.0,037.1,030.4,29.5,0000.0,0004.89,0010.44,0004.08
2023-07-13 16:23:00,SystemResetWarning,0831.6,5.01,000.00,028.8,025.1,000.0,037.0,030.2,28.6,0000.0,0004.90,0009.79,0004.08
2023-07-13 16:24:00,SystemResetWarning,0831.6,5.01,000.00,028.8,025.2,000.0,037.0,030.2,28.7,0000.0,0004.88,0010.04,0004.09
2023-07-13 16:25:00,SystemResetWarning,0831.6,5.00,000.00,028.7,025.5,000.0,037.0,030.1,29.0,0000.0,0004.89,0009.57,0004.09
2023-07-13 16:26:00,SystemResetWarning,0831.6,5.00,000.00,028.7,026.0,000.0,037.1,030.2,28.2,0000.0,0004.87,0009.32,0004.10
2023-07-13 16:27:00,SystemResetWarning,0831.6,5.00,000.00,028.7,026.4,000.0,037.1,030.2,28.5,0000.0,0004.87,0009.30,0004.11
2023-07-13 16:28:00,SystemResetWarning,0831.6,4.99,000.00,028.7,026.7,000.0,037.1,030.3,27.8,0000.0,0004.86,0009.32,0004.12
2023-07-13 16:29:00,SystemResetWarning,0831.6,5.00,000.00,028.8,027.1,000.0,037.2,030.4,27.6,0000.0,0004.81,0009.61,0004.10
2023-07-13 16:30:00,SystemResetWarning,0831.6,5.00,000.00,028.8,027.3,000.0,037.2,030.5,28.1,0000.0,0004.77,0009.52,0004.08
2023-07-13 16:31:00,SystemResetWarning,0831.6,5.00,000.00,028.9,027.0,000.0,037.1,030.5,28.2,0000.0,0004.66,0009.22,0004.05
2023-07-13 16:32:00,SystemResetWarning,0831.6,4.99,000.00,028.8,025.6,000.0,037.0,030.2,28.7,0000.0,0004.63,0009.41,0004.03
2023-07-13 16:33:00,SystemResetWarning,0831.6,5.01,000.00,028.8,025.1,000.0,036.9,030.1,28.1,0000.0,0004.64,0009.98,0004.01
2023-07-13 16:34:00,SystemResetWarning,0831.6,5.00,000.00,028.7,025.3,000.0,037.0,030.0,27.7,0000.0,0004.62,0009.68,0004.00
2023-07-13 16:35:00,SystemResetWarning,0831.6,5.00,000.00,028.7,025.7,000.0,037.0,030.0,26.8,0000.0,0004.57,0009.18,0003.98
2023-07-13 16:36:00,SystemResetWarning,0831.6,5.00,000.00,028.7,026.1,000.0,037.0,030.1,26.0,0000.0,0004.52,0009.72,0003.96
2023-07-13 16:37:00,SystemResetWarning,0831.6,4.99,000.00,028.7,026.5,000.0,037.1,030.2,28.5,0000.0,0004.52,0010.03,0003.95
2023-07-13 16:38:00,SystemResetWarning,0831.6,4.99,000.00,028.7,026.9,000.0,037.1,030.3,28.2,0000.0,0004.53,0010.21,0003.93
2023-07-13 16:39:00,SystemResetWarning,0831.6,5.01,000.00,028.8,027.2,000.0,037.1,030.4,28.7,0000.0,0004.50,0010.13,0003.92
2023-07-13 16:40:00,SystemResetWarning,0831.6,5.00,000.00,028.8,027.4,000.0,037.1,030.5,29.3,0000.0,0004.48,0009.97,0003.91
2023-07-13 16:41:00,SystemResetWarning,0831.6,4.99,000.00,028.8,026.5,000.0,037.0,030.4,28.2,0000.0,0004.45,0009.96,0003.91
2023-07-13 16:42:00,SystemResetWarning,0831.6,5.01,000.00,028.8,025.2,000.0,036.9,030.2,28.6,0000.0,0004.45,0009.96,0003.90
2023-07-13 16:43:00,SystemResetWarning,0831.6,5.01,000.00,028.7,025.2,000.0,036.9,030.1,29.4,0000.0,0004.45,0009.97,0003.89
2023-07-13 16:44:00,SystemResetWarning,0831.6,5.01,000.00,028.7,025.5,000.0,036.9,030.0,30.3,0000.0,0004.44,0009.29,0003.87
2023-07-13 16:45:00,SystemResetWarning,0831.6,5.00,000.00,028.6,025.9,000.0,037.0,030.1,30.4,0000.0,0004.47,0009.17,0003.87
2023-07-13 16:46:00,SystemResetWarning,0831.6,5.00,000.00,028.7,026.3,000.0,037.0,030.2,29.9,0000.0,0004.54,0009.37,0003.86
2023-07-13 16:47:00,SystemResetWarning,0831.6,5.00,000.00,028.7,026.7,000.0,037.0,030.3,29.6,0000.0,0004.58,0009.42,0003.87
2023-07-13 16:48:00,SystemResetWarning,0831.6,5.00,000.00,028.7,027.0,000.0,037.1,030.3,30.3,0000.0,0004.59,0009.18,0003.87
2023-07-13 16:49:00,SystemResetWarning,0831.6,5.00,000.00,028.8,027.3,000.0,037.1,030.4,29.5,0000.0,0004.57,0008.93,0003.89
2023-07-13 16:50:00,SystemResetWarning,0831.6,4.98,000.00,028.8,026.5,000.0,037.0,030.4,29.3,0000.0,0004.59,0008.94,0003.90
2023-07-13 16:51:00,SystemResetWarning,0831.6,5.00,000.00,028.7,025.2,000.0,036.9,030.1,30.5,0000.0,0004.57,0008.76,0003.92
2023-07-13 16:52:00,SystemResetWarning,0831.6,5.01,000.00,028.7,025.1,000.0,036.9,030.1,31.4,0000.0,0004.60,0008.48,0003.94
2023-07-13 16:53:00,SystemResetWarning,0831.6,4.99,000.00,028.6,025.4,000.0,036.9,030.0,31.4,0000.0,0004.65,0008.63,0003.97
2023-07-13 16:54:00,SystemResetWarning,0831.6,5.00,000.00,028.6,025.8,000.0,037.0,030.0,32.2,0000.0,0004.68,0008.73,0004.00
2023-07-13 16:55:00,SystemResetWarning,0831.6,5.01,000.00,028.6,026.3,000.0,037.0,030.1,31.6,0000.0,0004.70,0008.77,0004.04
2023-07-13 16:56:00,SystemResetWarning,0831.6,4.99,000.00,028.6,026.7,000.0,037.0,030.2,32.0,0000.0,0004.69,0008.92,0004.06
2023-07-13 16:57:00,SystemResetWarning,0831.6,4.99,000.00,028.7,027.0,000.0,037.0,030.3,31.7,0000.0,0004.67,0009.09,0004.08
2023-07-13 16:58:00,SystemResetWarning,0831.6,4.99,000.00,028.7,027.3,000.0,037.0,030.4,32.4,0000.0,0004.64,0008.70,0004.09
2023-07-13 16:59:00,SystemResetWarning,0831.6,5.00,000.00,028.7,026.6,000.0,037.0,030.4,33.4,0000.0,0004.63,0008.63,0004.10
